Regional Weather Roundup
Issued by NWS

Home | Current Version | Previous Version | Text Only | Print | Product List | Glossary Off
Versions: 1 2 3 4 5 6 7 8 9 10 11 12 13 14 15 16 17 18 19 20 21 22 23 24 25 26 27 28 29 30 31 32 33 34 35 36 37 38 39 40 41 42 43 44 45 46 47 48 49 50

000
ASUS43 KFSD 250002
RWRSD

WEATHER ROUNDUP FOR SOUTH DAKOTA
NATIONAL WEATHER SERVICE SIOUX FALLS SD
700 PM CDT FRI OCT 24 2014

NOTE: "FAIR" INDICATES FEW OR NO CLOUDS BELOW 12,000 FEET WITH NO
SIGNIFICANT WEATHER AND/OR OBSTRUCTIONS TO VISIBILITY.


SDZ001>005-009-010-012>017-250100-
NORTHWEST AND NORTH CENTRAL SOUTH DAKOTA

CITY           SKY/WX    TMP DP  RH WIND       PRES   REMARKS
BUFFALO          N/A     57  29  34 NW9       30.01R
FAITH            N/A     58  33  39 NW10      30.05R
MOBRIDGE       CLOUDY    65  37  35 NW8       29.96R
$$

SDZ012>016-024>037-041>051-057-063-072>074-250100-
SOUTHWEST AND SOUTH CENTRAL SOUTH DAKOTA

CITY           SKY/WX    TMP DP  RH WIND       PRES   REMARKS
RAPID CTY ARPT CLEAR     58  39  49 N8        30.04S
PIERRE         CLEAR     65  39  38 N12       29.97R
CUSTER         CLEAR     55  35  47 E6        30.12R
ELLSWORTH AFB  CLEAR     63  39  41 N9        30.05R
PHILIP         CLEAR     63  39  41 N10       29.99R
PINE RIDGE     CLEAR     63  38  39 NE8       30.02R
SPEARFISH      FAIR      55  37  50 NE5       30.10R
WINNER         FAIR      71  28  20 N6        29.97R
$$

SDZ004>011-016>023-039-040-250100-
NORTHEAST SOUTH DAKOTA

CITY           SKY/WX    TMP DP  RH WIND       PRES   REMARKS
ABERDEEN       CLEAR     66  40  38 W8        29.93R
WATERTOWN      PTCLDY    58  41  53 W7        29.92R
SISSETON         N/A     63  42  46 W8        29.87R
$$

SDZ017-020-022-023-036>040-048>070-250100-
SOUTHEAST SOUTH DAKOTA

CITY           SKY/WX    TMP DP  RH WIND       PRES   REMARKS
SIOUX FALLS    PTCLDY    62  42  47 NW6       29.93R
HURON          CLEAR     61  36  39 NW10      29.92R
CHAMBERLAIN    CLEAR     67  34  29 N5        29.97R
MITCHELL       CLEAR     70  39  32 CALM      29.93R
YANKTON        PTCLDY    63  46  55 CALM      29.94R
$$

ABBREVIATIONS USED IN REMARKS
   TC - TEMPERATURE IN CELSIUS
  WCI - WIND CHILL INDEX
   HX - HEAT INDEX
  VSB - VISIBILITY




USA.gov is the U.S. government's official web portal to all federal, state and local government web resources and services.